FENGYUN 1C DEB

Satellite information

Favourite Embed

Satellite Type and Status

DEBRISIN ORBIT

Key statistics

Satellite FENGYUN 1C DEB at a glance.

Uptime

9617

Days in orbit

Revolutions

≈ 13.7

Per day

Orbit

SSO

Sun Synchronous Orbit

Inclination

98.7

Latest

Satellite identification and parameters

Extended collection of information and parameters for FENGYUN 1C DEB.

Object identification

Identified? True

Debris? True

Object name: FENGYUN 1C DEB

International designator: 1999-025YY

Object number (NORAD): 30287

Object ID (CCSDS): 30287

Country: PEOPLES REPUBLIC OF CHINA (PRC)

Current information (Y/N): Y

RCS size: SMALL

Orbital parameters

Period: 105.249 minutes

Inclination: 98.6507 deg

SMA: 7384.232 km

Apoapsis: 1311.637 km

Periapsis: 700.558 km

RAAN: 293.6516 deg

Eccentricy: 0.0413773

Argument of periapsis: 270.0841 deg

Mean anomaly: 220.8663 deg

Mean motion: 13.68184704 rev/day

Mean motion (dot): 0.00001587 rev/day2

B* drag term: 0.0010506219 1/REarth

Two-line elements (TLE)

Creation date: Sept. 7, 2025, 3:09 a.m.

Reference frame: TEME

Reference center: EARTH

Epoch: Sept. 6, 2025, 3:10 p.m. UTC

TLE line 0: 0 FENGYUN 1C DEB

TLE line 1: 1 30287U 99025YY 25249.63214310 .00001587 00000-0 10506-2 0 9992

TLE line 2: 2 30287 98.6507 293.6516 0413773 270.0841 220.8663 13.68184704925304

Live tracking on map

Real-time ground track for satellite FENGYUN 1C DEB.

In-orbit conjunctions

A list of the most updated potential collisions computed for object FENGYUN 1C DEB.

Target Orbit TCA Probability of collision Miss distance Type
SSD LEO 2024-09-24 19:22:38 0.0003610968 755.0 (m) PAYLOAD
COSMOS 1275 DEB LEO 2024-08-22 22:18:18 0.0001086158 182.0 (m) DEBRIS

Associated space launch

Chinese polar orbiting meteorological satellite

FENGYUN 1C DEB was lifted into orbit during the mission ‘Long March 4B | Feng Yun 1C’, on board a Long March 4B space rocket.

The launch took place on May 10, 1999, 1:33 a.m. from Launch Complex 7.

For more information about the launch, click the button.

Launch to space Long March 4B | Feng Yun 1C
Long March 4B | Feng Yun 1C

Agency: N/A

Status: Launch Successful

Launch date: May 10, 1999, 1:33 a.m. UTC

Rocket: Long March 4B

Launch pad: Launch Complex 7

Location: Taiyuan Satellite Launch Center, People's Republic of China

...

Latest news about this satellite

There are no fresh news available about this satellite. Check back as we update our databases every day.


Newsletter sign-up

Weekly statistics, charts and insights to help you stay on top of the space industry.